Flag for Yemen Weather past 2 weeks in Al Hudaydah, Yemen

Now
77 °F

Clear.


Feels Like: 78 °F
Forecast: 76 / 86 °F
Wind: 1 mph from Southwest

Location: Hodeidah

Current Time: Mar 1, 2015 at 6:37:39 AM

Latest Report: Mar 1, 2015 at 4:00 AM


Visibility: 5 mi

Pressure: 29.83 "Hg

Humidity: 89%

Dew point: 73 °F

Location of Al HudaydahLocation

Historic Weather in Al Hudaydah — Graph

°F

Al Hudaydah temperature yesterday

Maximum temperature yesterday: 86 °F (at 1:00 PM)
Minimum temperature yesterday: 75 °F (at 7:00 AM)
Average temperature yesterday: 81 °F

Past Weeks' High & Low Weather Summary

 TemperatureHumidityPressure
High88 °F (Feb 24, 3:00 PM)94% (Feb 14, 6:00 AM)29.98 "Hg (Feb 14, 6:00 AM)
Low70 °F (Feb 18, 7:00 AM)58% (Feb 16, 4:00 PM)29.77 "Hg (Feb 19, 3:00 PM)
Average80 °F78%29.87 "Hg
* Reported Feb 14 4:00 AM — Mar 1 4:00 AM, Al Hudaydah, Weather by CustomWeather, © 2015

Note: Actual official high and low records may vary slightly from our data, if they occured in-between our weather recording intervals... More about our weather records

Advertising

Al Hudaydah weather history for previous 24 hours

 ConditionsComfort  
Time TempWeatherWind HumidityBarometerVisibility
4:00 AM
Sun, Mar 1
77 °FClear.1 mph89%29.83 "Hg5 mi
3:00 AM77 °FClear.3 mph89%29.83 "Hg5 mi
2:00 AM79 °FPassing clouds.7 mph89%29.86 "Hg5 mi
1:00 AM79 °FClear.9 mph89%29.86 "Hg5 mi
12:00 AM79 °FClear.7 mph89%29.89 "Hg5 mi
11:00 PM
Sat, Feb 28
82 °FClear.5 mph74%29.89 "Hg5 mi
10:00 PM81 °FClear.No wind74%29.86 "Hg5 mi
9:00 PM81 °FClear.No wind74%29.86 "Hg4 mi
8:00 PM82 °FClear.1 mph70%29.83 "Hg4 mi
7:00 PM81 °FDuststorm.2 mph74%29.83 "Hg3 mi
6:00 PM82 °FDuststorm.5 mph74%29.83 "Hg3 mi
5:00 PM84 °FDuststorm.5 mph66%29.80 "Hg3 mi
4:00 PM84 °FDuststorm.7 mph66%29.80 "Hg3 mi
3:00 PM86 °FDuststorm.7 mph62%29.83 "Hg3 mi
2:00 PM84 °FDuststorm.9 mph70%29.86 "Hg3 mi
1:00 PM86 °FDuststorm.10 mph70%29.86 "Hg3 mi
12:00 PM84 °FPassing clouds.13 mph74%29.89 "Hg3 mi
11:00 AM82 °FPassing clouds.10 mph79%29.92 "Hg2 mi
10:00 AM82 °FHaze.8 mph74%29.92 "Hg2 mi
9:00 AM81 °FScattered clouds.2 mph84%29.92 "Hg2 mi
8:00 AM77 °FHaze.2 mph89%29.92 "Hg2 mi
7:00 AM75 °FHaze.1 mph94%29.89 "Hg2 mi
6:00 AM77 °FHaze.2 mph89%29.86 "Hg3 mi
Weather by CustomWeather, © 2015

See weather overviewHow to use our weather pages